Tracking 28888 objects as of 22-May-2024
HD Live streaming from Space Station
objects crossing your sky now

THOR ABLESTAR DEB

Track THOR ABLESTAR DEB now!
10-day predictions


NORAD ID: 643
Int'l Code: 1961-015GU
Perigee: 896.1 km
Apogee: 1,384.6 km
Inclination: 66.4 °
Period: 108.0 minutes
Semi major axis: 7511 km
RCS: 0.0691 m2 (small)
Launch date: June 29, 1961
Source: United States (US)
Launch site: AIR FORCE EASTERN TEST RANGE (AFETR)

Note: This is SATELLITE DEBRIS
Your satellite tracking list
Your tracking list is empty




NASA's NSSDC Master Catalog

Two Line Element Set (TLE):
1 00643U 61015GU  24142.86200422  .00003579  00000-0  54834-2 0  9993
2 00643  66.3720 330.0427 0325229 100.8170 262.9655 13.33601650  9000
Source of the keplerian elements: AFSPC